[[{"header":{"parameterUnit":"m.s-1","parameterCategory":1,"la1":30.2991,"la2":30.254,"lo1":-89.0895,"lo2":-89.0444,"dy":0.0017,"dx":0.0017,"nx":28,"ny":28,"refTime":"2026-02-16T03:00:00:Z","depth":0,"parameterNumber":2,"parameterNumberName":"U-component_of_WINDS"},"data":[0,0,0,0,0,0,0,0,0,0,0,0,0,0,0,0,0,0,0,0,0,0,0,0,0,0,0,0,0,0,0,0,0,0,0,0,0,0,0,0,0,0,0,0,0,0,0,0,0,0,0,0,0,0,0,0,0,0,4.4153,4.4154,0,4.4257,4.4258,4.4259,4.424,4.4238,4.4237,4.4235,4.4344,4.4348,4.4353,0,0,0,0,0,0,0,0,0,0,0,0,0,4.3944,4.3948,4.4153,4.4154,4.4155,4.4257,4.4258,4.4259,4.4241,4.4238,4.4236,4.4234,4.4342,4.4348,4.4353,0,0,0,0,0,0,0,0,0,0,0,0,0,4.404,4.3949,4.4153,4.4158,4.416,4.4256,4.4258,4.426,4.4241,4.4238,4.4236,4.4233,4.4341,4.4347,4.4354,4.4452,0,0,4.4375,4.4378,0,0,0,0,0,0,0,0,4.4034,4.4047,4.4156,4.4158,4.416,4.4233,4.4224,4.4324,4.4242,4.421,4.4235,4.4232,4.4309,4.4319,4.4344,4.4457,4.4462,4.4376,4.438,4.4383,4.4385,0,0,0,0,0,0,0,4.4028,4.4043,4.4194,4.4158,4.416,4.4157,4.4168,4.4243,4.4274,4.4213,4.4212,4.4224,4.431,4.4338,4.4347,4.4464,4.4376,4.4382,4.4386,4.4389,4.4667,4.467,0,0,0,0,0,0,4.4019,4.4037,4.4191,4.4197,4.4089,4.4163,4.4175,4.4212,4.4273,4.428,4.4226,4.4223,4.4327,4.4339,4.435,4.4472,4.4383,4.439,4.4393,4.4664,4.4668,4.4672,0,0,0,0,0,0,4.4014,4.4033,4.4187,4.4117,4.4136,4.417,4.4212,4.4216,4.4243,4.4283,4.4289,4.4249,4.4325,4.4341,4.4428,4.4476,4.4393,4.4399,4.466,4.4665,4.467,4.4715,0,0,0,0,0,0,4.4008,4.4031,4.4067,4.4118,4.414,4.4261,4.4214,4.422,4.4255,4.4251,4.4306,4.4312,4.4324,4.4418,4.4435,4.4484,4.4404,4.4656,4.4663,4.4668,4.4709,4.4721,4.473,0,0,0,0,0,4.4001,4.4075,4.4069,4.4088,4.4186,4.4263,4.4276,4.4288,4.4259,4.4297,4.4323,4.4311,4.4468,4.4427,4.4446,4.4498,4.4653,4.4661,4.4668,4.4705,4.4718,4.473,0,0,0,0,0,0,4.4029,4.4082,4.4076,4.4168,4.4212,4.426,4.4308,4.4302,4.4354,4.4349,4.4362,4.4375,4.4464,4.4489,4.4443,4.4598,4.4557,4.4568,4.4578,4.4592,4.4602,4.4594,4.441,0,0,0,0,0,4.4046,4.4103,4.4147,4.4225,4.4247,4.4274,4.4308,4.4313,4.4359,4.4377,4.441,4.4456,4.4516,4.4555,4.4612,4.4713,4.4727,4.4758,4.4769,4.4777,4.4788,4.4847,4.4862,4.4696,4.4696,4.4695,0,0,4.4082,4.4118,4.4153,4.4231,4.4265,4.4327,4.4289,4.4354,4.4401,4.4387,4.4472,4.4498,4.4551,4.4646,4.469,4.467,4.4837,4.4787,4.4793,4.4799,4.4856,4.4872,4.4886,4.4701,4.47,4.4699,0,0,4.4178,4.421,4.428,4.4316,4.4368,4.4386,4.4403,4.4454,4.447,4.4556,4.4548,4.4604,4.4706,4.4745,4.4778,4.4894,4.4886,4.4912,4.4968,4.5025,4.5039,4.505,4.5094,4.511,4.4922,4.4922,4.4922,0,4.4216,4.4306,4.4317,4.4384,4.442,4.4412,4.4484,4.4519,4.4587,4.4614,4.459,4.4721,4.4756,4.4862,4.4891,4.4917,4.4939,4.4906,4.5035,4.5047,4.5059,4.5101,4.5117,4.4925,4.4925,4.4925,4.4924,0,4.4352,4.4415,4.4465,4.4533,4.4575,4.4644,4.4667,4.4709,4.4712,4.4733,4.4823,4.4864,4.4931,4.4957,4.496,4.5065,4.5052,4.5032,4.4991,4.5077,4.5118,4.5134,4.493,4.4929,4.4928,4.4927,0,0,4.4467,4.4541,4.456,4.4592,4.4651,4.4701,4.4772,4.4837,4.4874,4.4923,4.4985,4.5073,4.5057,4.5094,4.5102,4.5152,4.5246,4.5127,4.5129,4.515,4.5368,4.5384,4.5402,4.524,4.5243,4.5246,4.5365,0,4.4571,4.4694,4.4708,4.4819,4.488,4.4874,4.4937,4.4981,4.5004,4.506,4.5086,4.5149,4.5121,4.5145,4.5194,4.5224,4.529,4.5215,4.53,4.5303,4.5288,4.5422,4.5438,4.5548,4.538,4.5383,4.5384,0,4.4707,4.4761,4.4878,4.4933,4.4959,4.5014,4.5077,4.513,4.5182,4.5195,4.524,4.5242,4.5318,4.5274,4.5381,4.533,4.5366,4.5386,4.5391,4.54,4.535,4.5437,4.5583,4.56,4.5409,4.5407,4.5405,0,4.4783,4.4884,4.4969,4.4996,4.506,4.51,4.5129,4.5178,4.5218,4.5274,4.5301,4.5365,4.54,4.5451,4.5472,4.5437,4.5579,4.5536,4.5595,4.5595,4.5625,4.5623,4.5781,4.5646,4.5646,4.5645,4.5645,0,4.4898,4.4971,4.5004,4.5056,4.5139,4.5155,4.5237,4.5264,4.5309,4.5368,4.5367,4.5423,4.5446,4.5507,4.5524,4.5612,4.5628,4.5643,4.5647,4.5644,4.5642,4.5668,4.5662,4.565,4.5649,4.5648,4.5647,0,4.4996,4.502,4.5113,4.5167,4.5183,4.5242,4.5289,4.5341,4.5364,4.544,4.5458,4.5495,4.5567,4.5593,4.568,4.5692,4.5795,4.5791,4.5777,4.5778,4.5837,4.5832,4.6018,4.6044,4.589,4.5892,4.5893,0,4.5068,4.5124,4.5185,4.5225,4.5255,4.5319,4.536,4.5379,4.5423,4.5488,4.5533,4.5604,4.5662,4.5778,4.5814,4.5882,4.5881,4.5942,4.5891,4.5888,4.5885,4.5882,4.589,4.5951,4.5953,4.5954,4.5955,0,4.5195,4.5205,4.5264,4.5329,4.5378,4.543,4.548,4.5513,4.554,4.559,4.5663,4.5708,4.5798,4.587,4.5941,4.5973,4.597,4.5971,4.5989,4.5987,4.5977,4.5986,4.5805,4.5967,4.5966,4.5965,4.5964,4.5964,4.5284,4.5335,4.5387,4.5454,4.5494,4.5542,4.5594,4.5625,4.5686,4.576,4.5769,4.5849,4.5903,4.5997,4.6033,4.6097,4.6081,4.6106,4.6113,4.6119,4.6125,4.5966,4.611,4.611,4.6109,4.6109,4.6109,0,4.5413,4.5446,4.5508,4.5579,4.5633,4.5624,4.5681,4.5727,4.5797,4.5847,4.5905,4.5992,4.6063,4.6105,4.6177,4.6221,4.6222,4.624,4.6237,4.6246,4.6134,4.6112,4.6238,4.6238,4.6238,4.6238,4.6238,4.6238,4.5486,4.5573,4.559,4.5699,4.5732,4.581,4.5844,4.5889,4.593,4.6027,4.6085,4.6113,4.6161,4.6237,4.6303,4.6314,4.6342,4.6362,4.6371,4.6266,4.6253,4.624,4.622,4.6367,4.6367,4.6478,4.6479,4.648]},{"header":{"parameterUnit":"m.s-1","parameterCategory":1,"la1":30.2991,"la2":30.254,"lo1":-89.0895,"lo2":-89.0444,"dy":0.0017,"dx":0.0017,"nx":28,"ny":28,"refTime":"2026-02-16T03:00:00:Z","depth":0,"parameterNumber":3,"parameterNumberName":"V-component_of_WINDS"},"data":[0,0,0,0,0,0,0,0,0,0,0,0,0,0,0,0,0,0,0,0,0,0,0,0,0,0,0,0,0,0,0,0,0,0,0,0,0,0,0,0,0,0,0,0,0,0,0,0,0,0,0,0,0,0,0,0,0,0,-4.8763,-4.8764,0,-4.888,-4.8882,-4.8883,-4.896,-4.896,-4.8961,-4.8961,-4.9076,-4.9079,-4.9081,0,0,0,0,0,0,0,0,0,0,0,0,0,-4.8602,-4.8604,-4.8763,-4.8764,-4.8766,-4.888,-4.8882,-4.8883,-4.896,-4.896,-4.8961,-4.8962,-4.9075,-4.9078,-4.9081,0,0,0,0,0,0,0,0,0,0,0,0,0,-4.869,-4.8605,-4.8763,-4.8818,-4.8824,-4.888,-4.8882,-4.8884,-4.896,-4.896,-4.8961,-4.8962,-4.9074,-4.9078,-4.9082,-4.9091,0,0,-4.9094,-4.9095,0,0,0,0,0,0,0,0,-4.8685,-4.8696,-4.8808,-4.8814,-4.8821,-4.8906,-4.8867,-4.8953,-4.8959,-4.8908,-4.8961,-4.8962,-4.9019,-4.9027,-4.9047,-4.9096,-4.9101,-4.9094,-4.9096,-4.9098,-4.9099,0,0,0,0,0,0,0,-4.8679,-4.8692,-4.8809,-4.881,-4.8818,-4.8836,-4.8849,-4.8884,-4.8957,-4.8912,-4.8918,-4.8931,-4.9022,-4.9043,-4.9051,-4.9103,-4.9094,-4.9097,-4.91,-4.9101,-4.9167,-4.9166,0,0,0,0,0,0,-4.8665,-4.8686,-4.8806,-4.8813,-4.8754,-4.8838,-4.8853,-4.8878,-4.8957,-4.897,-4.8931,-4.8935,-4.9036,-4.9046,-4.9055,-4.9072,-4.9098,-4.9102,-4.9104,-4.9167,-4.9167,-4.9166,0,0,0,0,0,0,-4.8661,-4.8675,-4.8801,-4.8751,-4.8769,-4.884,-4.8867,-4.888,-4.8901,-4.8971,-4.8984,-4.8939,-4.9037,-4.9049,-4.9082,-4.9077,-4.9103,-4.9107,-4.9168,-4.9167,-4.9166,-4.9104,0,0,0,0,0,0,-4.8656,-4.8673,-4.8677,-4.8751,-4.8771,-4.8826,-4.8867,-4.8882,-4.8908,-4.8915,-4.8982,-4.8994,-4.9039,-4.9076,-4.9086,-4.9082,-4.911,-4.9169,-4.9168,-4.9167,-4.9106,-4.9101,-4.9096,0,0,0,0,0,-4.865,-4.8653,-4.8677,-4.8691,-4.8778,-4.8826,-4.8837,-4.889,-4.8908,-4.8912,-4.8958,-4.8992,-4.9076,-4.9079,-4.9091,-4.9088,-4.9169,-4.9168,-4.9167,-4.9109,-4.9102,-4.9096,0,0,0,0,0,0,-4.8574,-4.8664,-4.8691,-4.8718,-4.8764,-4.8839,-4.8846,-4.8881,-4.8921,-4.8925,-4.8988,-4.9002,-4.9029,-4.9062,-4.9063,-4.9102,-4.9127,-4.9128,-4.9079,-4.9073,-4.9067,-4.9058,-4.9113,0,0,0,0,0,-4.8561,-4.8594,-4.867,-4.8686,-4.8709,-4.8773,-4.8796,-4.8834,-4.8883,-4.8902,-4.8949,-4.8995,-4.9032,-4.9054,-4.9092,-4.9113,-4.9129,-4.9117,-4.9112,-4.9107,-4.9106,-4.9121,-4.9117,-4.9162,-4.9162,-4.9162,0,0,-4.8533,-4.8586,-4.8602,-4.8673,-4.8713,-4.8744,-4.8789,-4.882,-4.8844,-4.8906,-4.894,-4.8977,-4.9032,-4.9059,-4.9073,-4.9087,-4.9098,-4.9105,-4.9101,-4.9103,-4.9119,-4.9115,-4.9111,-4.9161,-4.9161,-4.9161,0,0,-4.8499,-4.8542,-4.8562,-4.8602,-4.8664,-4.8707,-4.8712,-4.8783,-4.881,-4.8846,-4.8894,-4.8924,-4.8985,-4.9023,-4.905,-4.9035,-4.9068,-4.9045,-4.9016,-4.903,-4.9027,-4.9024,-4.9019,-4.9016,-4.9045,-4.9045,-4.9045,0,-4.8456,-4.8507,-4.8567,-4.8597,-4.8626,-4.8688,-4.8708,-4.8743,-4.8812,-4.8831,-4.8847,-4.8928,-4.8969,-4.9007,-4.9003,-4.9023,-4.9031,-4.9037,-4.9023,-4.9021,-4.9019,-4.9014,-4.9012,-4.9042,-4.9042,-4.9042,-4.9043,0,-4.8451,-4.8486,-4.8494,-4.8563,-4.8594,-4.8618,-4.8682,-4.8706,-4.8742,-4.8784,-4.882,-4.8873,-4.8923,-4.8935,-4.8969,-4.8978,-4.8985,-4.9011,-4.9037,-4.901,-4.9007,-4.9006,-4.9037,-4.9038,-4.9039,-4.904,0,0,-4.8368,-4.8473,-4.8475,-4.8508,-4.8582,-4.861,-4.8638,-4.869,-4.8709,-4.8756,-4.878,-4.8834,-4.8859,-4.889,-4.8929,-4.8942,-4.8927,-4.8966,-4.8969,-4.8957,-4.8941,-4.892,-4.8917,-4.8951,-4.8951,-4.895,-4.8937,0,-4.8344,-4.8399,-4.8456,-4.849,-4.8523,-4.8584,-4.8609,-4.8656,-4.8698,-4.8731,-4.8776,-4.8813,-4.8844,-4.8863,-4.8878,-4.8925,-4.8924,-4.8927,-4.8973,-4.8974,-4.8956,-4.8916,-4.8893,-4.8877,-4.8936,-4.8935,-4.8935,0,-4.8322,-4.837,-4.8408,-4.8482,-4.8498,-4.8519,-4.8572,-4.8604,-4.866,-4.8689,-4.8726,-4.8769,-4.8801,-4.8826,-4.8871,-4.8872,-4.8895,-4.8921,-4.8922,-4.8927,-4.8951,-4.8918,-4.8873,-4.887,-4.8934,-4.8934,-4.8934,0,-4.8258,-4.8331,-4.8364,-4.839,-4.8477,-4.849,-4.8527,-4.8584,-4.8613,-4.8659,-4.8679,-4.8727,-4.8754,-4.8791,-4.8846,-4.8858,-4.8886,-4.8914,-4.891,-4.8909,-4.8911,-4.891,-4.8868,-4.8928,-4.8928,-4.8928,-4.8928,0,-4.8224,-4.8244,-4.8336,-4.8356,-4.8382,-4.8448,-4.8471,-4.8513,-4.8564,-4.8593,-4.8649,-4.8674,-4.8747,-4.8781,-4.8824,-4.8856,-4.8867,-4.8891,-4.8902,-4.8886,-4.8882,-4.89,-4.8902,-4.8927,-4.8927,-4.8927,-4.8927,0,-4.8154,-4.8217,-4.8257,-4.8337,-4.8358,-4.8374,-4.8442,-4.8464,-4.851,-4.8546,-4.8559,-4.863,-4.8674,-4.8734,-4.8795,-4.8825,-4.885,-4.8868,-4.8831,-4.8838,-4.883,-4.883,-4.8796,-4.8796,-4.8856,-4.8856,-4.8855,0,-4.8127,-4.8146,-4.823,-4.8254,-4.829,-4.8328,-4.8359,-4.8426,-4.8455,-4.8523,-4.8536,-4.8585,-4.8627,-4.8694,-4.8751,-4.8799,-4.8818,-4.8804,-4.8825,-4.8809,-4.8817,-4.8815,-4.8817,-4.8797,-4.8796,-4.8795,-4.8794,0,-4.8073,-4.8105,-4.8147,-4.8202,-4.8237,-4.8283,-4.833,-4.8347,-4.8424,-4.8454,-4.8501,-4.8534,-4.86,-4.8647,-4.8703,-4.874,-4.878,-4.8788,-4.879,-4.8771,-4.8749,-4.8761,-4.8816,-4.8788,-4.8788,-4.8789,-4.8789,-4.8789,-4.8024,-4.8044,-4.8107,-4.8153,-4.8198,-4.8242,-4.8267,-4.8318,-4.8359,-4.8419,-4.8456,-4.8501,-4.856,-4.864,-4.8676,-4.8712,-4.8728,-4.873,-4.873,-4.8729,-4.8724,-4.8746,-4.8723,-4.8723,-4.8723,-4.8723,-4.8724,0,-4.7972,-4.8017,-4.806,-4.8127,-4.8164,-4.8202,-4.8258,-4.8285,-4.8325,-4.8378,-4.842,-4.8475,-4.8522,-4.8585,-4.8637,-4.8654,-4.8674,-4.8665,-4.8664,-4.8672,-4.8707,-4.87,-4.8649,-4.8649,-4.8649,-4.8649,-4.8649,-4.8649,-4.795,-4.7985,-4.8025,-4.8083,-4.8128,-4.8175,-4.8204,-4.8245,-4.8288,-4.8348,-4.8389,-4.843,-4.8487,-4.8544,-4.859,-4.8607,-4.8623,-4.8609,-4.8632,-4.8662,-4.8669,-4.8675,-4.8669,-4.8613,-4.8613,-4.8594,-4.8594,-4.8594]}]]